GW0177 Weather Reports


time (UTC)temp
C
wind
direction
speed
KPH
gust
KPH
rain 1hr
cm
rain 24hr
cm
rain mn
cm
humidity
%
barometer
mb
20260505124532 1 269 0.0 4.8 0.00 0.00 0.00 93 1012.9
20260505123046 2 0 0.0 6.4 0.00 0.00 0.00 93 1012.7
20260505121534 2 0 0.0 4.8 0.00 0.00 0.00 93 1012.9
20260505120041 2 255 0.0 4.8 0.00 0.00 0.00 93 1012.8
20260505114545 3 0 0.0 4.8 0.00 0.00 0.00 93 1012.6
20260505113028 3 0 0.0 6.4 0.00 0.00 0.00 93 1012.4
20260505111528 4 0 0.0 3.2 0.00 0.00 0.00 93 1012.2
20260505101530 6 5 0.0 1.6 0.00 0.00 0.00 94 1011.1
20260505100031 5 0 0.0 0.0 0.00 0.00 0.00 94 1011.0
20260505094530 6 0 0.0 0.0 0.00 0.00 0.00 94 1011.1
20260505093032 6 0 0.0 0.0 0.00 0.00 0.00 94 1011.0
20260505091539 6 0 0.0 0.0 0.00 0.00 0.00 94 1011.3
20260505090043 6 0 0.0 0.0 0.00 0.00 0.00 94 1011.2
20260505084529 6 0 0.0 0.0 0.00 0.00 0.00 93 1011.0
20260505083030 6 0 0.0 0.0 0.00 0.00 0.00 93 1011.1
20260505081537 6 0 0.0 0.0 0.00 0.00 0.00 93 1011.6
20260505080046 7 0 0.0 0.0 0.00 0.00 0.00 93 1011.9
20260505074528 7 0 0.0 0.0 0.00 0.00 0.00 93 1011.9
20260505073034 7 0 0.0 0.0 0.00 0.00 0.00 93 1012.3
20260505071532 7 0 0.0 0.0 0.00 0.00 0.00 93 1012.3
20260505070032 6 0 0.0 0.0 0.00 0.00 0.00 93 1012.6
20260505064528 6 0 0.0 0.0 0.00 0.00 0.00 93 1012.8
20260505063033 6 0 0.0 0.0 0.00 0.00 0.00 93 1012.9
20260505061530 6 0 0.0 0.0 0.00 0.00 0.00 93 1012.8
20260505060034 7 0 0.0 0.0 0.00 0.00 0.00 93 1012.7
20260505054532 7 0 0.0 0.0 0.00 0.00 0.00 92 1013.0
20260505053028 7 0 0.0 0.0 0.00 0.00 0.00 92 1012.3
20260505051528 7 0 0.0 0.0 0.00 0.00 0.00 92 1012.7
20260505041545 7 0 0.0 0.0 0.00 0.00 0.00 89 1013.1
20260505040030 8 0 0.0 0.0 0.00 0.00 0.00 87 1012.9
20260505034528 8 0 0.0 1.6 0.00 0.00 0.00 82 1012.8
20260505033028 10 0 0.0 1.6 0.00 0.00 0.00 75 1012.7
20260505031536 10 0 0.0 1.6 0.00 0.00 0.00 68 1012.3
20260505030035 10 0 0.0 0.0 0.00 0.00 0.00 66 1012.1
20260505024530 10 0 0.0 0.0 0.00 0.00 0.00 63 1012.0
20260505023039 10 0 0.0 0.0 0.00 0.00 0.00 60 1011.7
20260505021529 11 0 0.0 0.0 0.00 0.00 0.00 59 1011.5
20260505020034 11 0 0.0 0.0 0.00 0.00 0.00 58 1011.5
20260505014538 11 0 0.0 0.0 0.00 0.00 0.00 58 1011.3
20260505013033 11 0 0.0 1.6 0.00 0.00 0.00 58 1011.2
20260505011532 12 0 0.0 3.2 0.00 0.00 0.00 55 1011.2
20260505010028 13 274 1.6 6.4 0.00 0.00 0.00 47 1011.2
20260505004537 13 255 1.6 8.0 0.00 0.00 0.00 45 1011.0
20260505003030 14 0 0.0 1.6 0.00 0.00 0.00 40 1010.9
20260505001530 15 0 0.0 3.2 0.00 0.00 0.00 38 1010.6
20260505000039 15 304 0.0 3.2 0.00 0.00 0.00 35 1010.2
20260504234528 16 0 0.0 3.2 0.00 0.00 0.00 34 1010.1
20260504233032 16 338 0.0 1.6 0.00 0.00 0.00 33 1010.0
20260504231530 16 344 1.6 8.0 0.00 0.00 0.00 32 1009.9
20260504230030 17 141 1.6 9.7 0.00 0.00 0.00 31 1008.9
20260504224530 18 0 0.0 4.8 0.00 0.00 0.00 29 1008.7
20260504223034 19 0 0.0 3.2 0.00 0.00 0.00 24 1008.4
20260504221532 18 0 0.0 1.6 0.00 0.00 0.00 24 1008.7
20260504220030 18 0 0.0 1.6 0.00 0.00 0.00 25 1008.7
20260504214531 18 214 0.0 3.2 0.00 0.00 0.00 25 1008.7
20260504213052 18 252 1.6 4.8 0.00 0.00 0.00 25 1009.0
20260504211530 18 307 1.6 4.8 0.00 0.00 0.00 26 1009.0
20260504210032 19 296 0.0 6.4 0.00 0.00 0.00 25 1009.3
20260504204531 20 0 0.0 4.8 0.00 0.00 0.00 24 1009.2
20260504203031 18 238 1.6 4.8 0.00 0.00 0.00 26 1009.2
20260504201534 19 302 1.6 4.8 0.00 0.00 0.00 25 1009.5
20260504200030 18 19 1.6 4.8 0.00 0.00 0.00 26 1009.5
20260504194534 18 278 1.6 4.8 0.00 0.00 0.00 24 1009.5
20260504193034 19 0 1.6 4.8 0.00 0.00 0.00 24 1009.4
20260504191529 18 252 1.6 6.4 0.00 0.00 0.00 25 1009.4
20260504190031 19 121 1.6 8.0 0.00 0.00 0.00 24 1009.2
20260504184533 18 0 0.0 8.0 0.00 0.00 0.00 24 1009.2
20260504183030 19 107 0.0 4.8 0.00 0.00 0.00 19 1009.2
20260504181532 19 0 0.0 1.6 0.00 0.00 0.00 22 1009.4
20260504180030 20 0 1.6 6.4 0.00 0.00 0.00 20 1009.4
20260504174530 20 296 1.6 4.8 0.00 0.00 0.00 20 1009.8
20260504173036 20 263 0.0 4.8 0.00 0.00 0.00 21 1010.1
20260504171532 18 0 1.6 6.4 0.00 0.00 0.00 22 1010.3